Orbital Elements at Epoch 2459200.5 (2020-Dec-17.0) TDB
Reference: JPL 20 (heliocentric ecliptic J2000)
Element | Value | Uncertainty (1-sigma) | Units |
e | .028903926811684 | 6.2138e-08 | |
a | 2.629493893863093 | 1.698e-08 | au |
q | 2.553491194803104 | 1.7215e-07 | au |
i | 21.31361569443447 | 5.3291e-06 | deg |
node | 244.0162470735256 | 1.6781e-05 | deg |
peri | 186.6564627265436 | 0.00014833 | deg |
M | 323.1674929578873 | 0.00014493 | deg |
tp | 2459359.843905192020 (2021-May-25.34390519) | 0.0006271 | TDB |
period | 1557.423332697388 4.26 | 1.5085e-05 4.13e-08 | d yr |
n | .231151025184974 | 2.2389e-09 | deg/d |
Q | 2.705496592923082 | 1.747e-08 | au |
|
| | Orbit Determination Parameters
Additional Information
|